Location: Clermont
(50.2608°N, 4.3172°E)
Time: 09:33:35
(UTC+00:00)

COSMOS 2487 - Pass Details

Date: 13 August 2020
Orbit: 439 x 443 km, 74.7° (Epoch: 21 September)

Event Time Altitude Azimuth Distance (km) Brightness Sun altitude
Exits shadow 21:55:58 25° 58° (ENE) 923 4.0 -21.0°
Drops below altitude 10° 21:57:47 10° 37° (NE) 1,565 5.4 -21.1°
Sets 21:59:57 0° 29° (NNE) 2,441 6.6 -21.3°
